Time,TemperatureF,DewpointF,PressureIn,WindDirection,WindDirectionDegrees,WindSpeedMPH,WindSpeedGustMPH,Humidity,HourlyPrecipIn,Conditions,Clouds,dailyrainin,SolarRadiationWatts/m^2,SoftwareType,DateUTC
2013-03-10 00:02:00,33.5,32.7,29.81,NNW,345,6.0,7.0,97,0.05,,---,0.00,0.00,VWS V14.00,2013-03-10 06:02:00,
2013-03-10 00:07:00,33.4,32.6,29.80,NNW,336,7.0,7.0,97,0.04,,---,0.01,0.00,VWS V14.00,2013-03-10 06:07:00,
2013-03-10 00:12:00,33.4,32.6,29.80,WNW,296,4.0,7.0,97,0.04,,---,0.01,0.00,VWS V14.00,2013-03-10 06:12:00,
2013-03-10 00:17:00,33.4,32.6,29.80,NW,312,4.0,9.0,97,0.04,,---,0.01,0.00,VWS V14.00,2013-03-10 06:17:00,
2013-03-10 00:22:00,33.3,32.5,29.81,NW,304,7.0,11.0,97,0.04,,---,0.02,0.00,VWS V14.00,2013-03-10 06:22:00,
2013-03-10 00:27:00,33.3,32.5,29.80,NNW,331,5.0,11.0,97,0.04,,---,0.02,0.00,VWS V14.00,2013-03-10 06:27:00,
2013-03-10 00:32:00,33.4,32.6,29.80,NNW,343,3.0,11.0,97,0.04,,---,0.02,0.00,VWS V14.00,2013-03-10 06:32:00,
2013-03-10 00:37:00,33.4,32.6,29.81,NW,323,9.0,14.0,97,0.04,,---,0.02,0.00,VWS V14.00,2013-03-10 06:37:00,
2013-03-10 00:42:00,33.4,32.6,29.80,NW,318,6.0,14.0,97,0.00,,---,0.02,0.00,VWS V14.00,2013-03-10 06:42:00,
2013-03-10 00:47:00,33.4,32.6,29.80,North,360,4.0,14.0,97,0.00,,---,0.02,0.00,VWS V14.00,2013-03-10 06:47:00,
2013-03-10 00:52:00,33.4,32.6,29.80,NW,317,6.0,14.0,97,0.00,,---,0.02,0.00,VWS V14.00,2013-03-10 06:52:00,
2013-03-10 00:55:00,33.8,32.5,29.82,NNW,348,8.0,18.0,95,0.00,,---,0.02,0.00,VWS V14.00,2013-03-10 06:55:00,
2013-03-10 00:56:00,33.7,32.4,29.82,NNW,343,6.0,18.0,95,0.00,,---,0.02,0.00,VWS V14.00,2013-03-10 06:56:00,
2013-03-10 00:57:00,33.4,32.6,29.80,NW,321,4.0,4.0,97,0.00,,---,0.02,0.00,VWS V14.00,2013-03-10 06:57:00,
2013-03-10 00:58:00,33.7,32.4,29.81,NW,325,5.0,18.0,95,0.00,,---,0.02,0.00,VWS V14.00,2013-03-10 06:58:00,
2013-03-10 00:59:00,33.8,32.5,29.81,NNW,348,6.0,18.0,95,0.00,,---,0.02,0.00,VWS V14.00,2013-03-10 06:59:00,
2013-03-10 01:03:00,33.4,32.6,29.80,North,350,7.0,13.0,97,0.00,,---,0.02,0.00,VWS V14.00,2013-03-10 07:03:00,
2013-03-10 01:07:00,33.4,32.4,29.79,NW,323,4.0,13.0,96,0.00,,---,0.02,0.00,VWS V14.00,2013-03-10 07:07:00,
2013-03-10 01:12:00,33.4,32.4,29.79,North,350,3.0,13.0,96,0.00,,---,0.02,0.00,VWS V14.00,2013-03-10 07:12:00,
2013-03-10 01:18:00,33.5,32.5,29.79,North,355,6.0,14.0,96,0.00,,---,0.02,0.00,VWS V14.00,2013-03-10 07:18:00,
2013-03-10 01:23:00,33.5,32.5,29.80,NW,321,7.0,16.0,96,0.00,,---,0.02,0.00,VWS V14.00,2013-03-10 07:23:00,
2013-03-10 01:28:00,33.6,32.6,29.81,North,350,9.0,11.0,96,0.00,,---,0.02,0.00,VWS V14.00,2013-03-10 07:28:00,
2013-03-10 01:33:00,33.7,32.4,29.80,NW,326,5.0,14.0,95,0.00,,---,0.02,0.00,VWS V14.00,2013-03-10 07:33:00,
2013-03-10 01:38:00,33.6,32.3,29.81,North,350,5.0,14.0,95,0.00,,---,0.02,0.00,VWS V14.00,2013-03-10 07:38:00,
2013-03-10 01:43:00,33.7,32.4,29.81,NW,325,5.0,18.0,95,0.00,,---,0.02,0.00,VWS V14.00,2013-03-10 07:43:00,
2013-03-10 01:48:00,33.7,32.4,29.82,NW,316,6.0,18.0,95,0.00,,---,0.02,0.00,VWS V14.00,2013-03-10 07:48:00,
2013-03-10 01:57:00,33.7,32.4,29.81,North,355,9.0,18.0,95,0.00,,---,0.02,0.00,VWS V14.00,2013-03-10 07:57:00,
2013-03-10 03:02:00,33.8,32.3,29.82,NW,315,5.0,11.0,94,0.00,,---,0.02,0.00,VWS V14.00,2013-03-10 08:02:00,
2013-03-10 03:07:00,33.8,32.3,29.82,NNW,333,8.0,12.0,94,0.00,,---,0.02,0.00,VWS V14.00,2013-03-10 08:07:00,
2013-03-10 03:13:00,33.8,32.3,29.82,North,350,5.0,12.0,94,0.00,,---,0.02,0.00,VWS V14.00,2013-03-10 08:13:00,
2013-03-10 03:18:00,33.8,32.3,29.82,NW,325,4.0,14.0,94,0.00,,---,0.02,0.00,VWS V14.00,2013-03-10 08:18:00,
2013-03-10 03:23:00,33.8,32.3,29.83,NNW,338,5.0,14.0,94,0.00,,---,0.02,0.00,VWS V14.00,2013-03-10 08:23:00,
2013-03-10 03:28:00,33.8,32.3,29.83,North,5,6.0,7.0,94,0.00,,---,0.02,0.00,VWS V14.00,2013-03-10 08:28:00,
2013-03-10 03:33:00,33.8,32.3,29.83,NW,322,7.0,9.0,94,0.00,,---,0.02,0.00,VWS V14.00,2013-03-10 08:33:00,
2013-03-10 03:38:00,33.8,32.0,29.83,NW,319,9.0,11.0,93,0.00,,---,0.02,0.00,VWS V14.00,2013-03-10 08:38:00,
2013-03-10 03:43:00,33.8,32.0,29.83,NW,320,5.0,11.0,93,0.00,,---,0.02,0.00,VWS V14.00,2013-03-10 08:43:00,
2013-03-10 03:48:00,33.8,33.8,29.83,NW,307,5.0,11.0,100,0.00,,---,0.02,0.00,VWS V14.00,2013-03-10 08:48:00,
2013-03-10 03:53:00,33.8,32.0,29.83,NNW,344,5.0,13.0,93,0.00,,---,0.02,0.00,VWS V14.00,2013-03-10 08:53:00,
2013-03-10 03:58:00,33.8,32.0,29.83,NNE,16,9.0,9.0,93,0.00,,---,0.02,0.00,VWS V14.00,2013-03-10 08:58:00,
2013-03-10 04:03:00,33.8,31.7,29.84,North,11,6.0,15.0,92,0.00,,---,0.02,0.00,VWS V14.00,2013-03-10 09:03:00,
2013-03-10 04:08:00,33.8,31.7,29.84,NNW,337,5.0,15.0,92,0.00,,---,0.02,0.00,VWS V14.00,2013-03-10 09:08:00,
2013-03-10 04:13:00,33.8,31.7,29.84,North,5,2.0,15.0,92,0.00,,---,0.02,0.00,VWS V14.00,2013-03-10 09:13:00,
2013-03-10 04:18:00,33.7,31.6,29.84,North,5,11.0,15.0,92,0.00,,---,0.02,0.00,VWS V14.00,2013-03-10 09:18:00,
2013-03-10 04:24:00,33.7,31.6,29.83,North,5,11.0,15.0,92,0.00,,---,0.02,0.00,VWS V14.00,2013-03-10 09:24:00,
2013-03-10 04:29:00,33.7,31.6,29.83,NNW,342,8.0,12.0,92,0.00,,---,0.02,0.00,VWS V14.00,2013-03-10 09:29:00,
2013-03-10 04:34:00,33.7,31.4,29.83,NNW,327,6.0,14.0,91,0.00,,---,0.02,0.00,VWS V14.00,2013-03-10 09:34:00,
2013-03-10 04:39:00,33.7,31.4,29.83,NNW,327,4.0,14.0,91,0.00,,---,0.02,0.00,VWS V14.00,2013-03-10 09:39:00,
2013-03-10 04:44:00,33.7,31.1,29.83,NNE,13,8.0,15.0,90,0.00,,---,0.02,0.00,VWS V14.00,2013-03-10 09:44:00,
2013-03-10 04:49:00,33.7,31.1,29.82,NNW,327,9.0,15.0,90,0.00,,---,0.02,0.00,VWS V14.00,2013-03-10 09:49:00,
2013-03-10 04:54:00,33.7,31.1,29.81,North,360,10.0,17.0,90,0.00,,---,0.02,0.00,VWS V14.00,2013-03-10 09:54:00,
2013-03-10 04:59:00,33.7,30.8,29.82,NNW,331,5.0,14.0,89,0.00,,---,0.02,0.00,VWS V14.00,2013-03-10 09:59:00,
2013-03-10 05:04:00,33.7,30.8,29.81,NNW,330,8.0,18.0,89,0.00,,---,0.02,0.00,VWS V14.00,2013-03-10 10:04:00,
2013-03-10 05:09:00,33.6,31.0,29.81,NNE,20,9.0,18.0,90,0.00,,---,0.02,0.00,VWS V14.00,2013-03-10 10:09:00,
2013-03-10 05:14:00,33.6,31.0,29.82,NW,313,6.0,18.0,90,0.00,,---,0.02,0.00,VWS V14.00,2013-03-10 10:14:00,
2013-03-10 05:19:00,33.6,31.0,29.81,NNE,32,6.0,18.0,90,0.00,,---,0.02,0.00,VWS V14.00,2013-03-10 10:19:00,
2013-03-10 05:25:00,33.5,30.9,29.81,NNE,30,15.0,18.0,90,0.00,,---,0.02,0.00,VWS V14.00,2013-03-10 10:25:00,
2013-03-10 05:30:00,33.6,31.0,29.84,NNW,337,5.0,12.0,90,0.00,,---,0.02,0.00,VWS V14.00,2013-03-10 10:30:00,
2013-03-10 05:35:00,33.6,31.0,29.84,NNW,334,6.0,13.0,90,0.00,,---,0.02,0.00,VWS V14.00,2013-03-10 10:35:00,
2013-03-10 05:40:00,33.6,31.0,29.85,NNW,327,7.0,15.0,90,0.00,,---,0.02,0.00,VWS V14.00,2013-03-10 10:40:00,
2013-03-10 05:45:00,33.6,31.0,29.86,North,355,13.0,15.0,90,0.00,,---,0.02,0.00,VWS V14.00,2013-03-10 10:45:00,
2013-03-10 05:50:00,33.6,31.0,29.86,NNW,328,6.0,15.0,90,0.00,,---,0.02,0.00,VWS V14.00,2013-03-10 10:50:00,
2013-03-10 05:55:00,33.6,31.0,29.85,NNW,346,5.0,15.0,90,0.00,,---,0.02,0.00,VWS V14.00,2013-03-10 10:55:00,
2013-03-10 06:00:00,33.5,30.9,29.86,NW,311,4.0,16.0,90,0.00,,---,0.02,0.00,VWS V14.00,2013-03-10 11:00:00,
2013-03-10 06:05:00,33.5,30.9,29.86,NW,306,5.0,16.0,90,0.00,,---,0.02,0.00,VWS V14.00,2013-03-10 11:05:00,
2013-03-10 06:10:00,33.4,30.8,29.86,NNE,16,11.0,18.0,90,0.00,,---,0.02,0.00,VWS V14.00,2013-03-10 11:10:00,
2013-03-10 06:15:00,33.4,30.8,29.85,NW,322,4.0,18.0,90,0.00,,---,0.02,0.00,VWS V14.00,2013-03-10 11:15:00,
2013-03-10 06:20:00,33.4,30.8,29.86,NNW,335,3.0,18.0,90,0.00,,---,0.02,0.00,VWS V14.00,2013-03-10 11:20:00,
2013-03-10 06:25:00,33.4,30.8,29.85,NNW,347,6.0,18.0,90,0.00,,---,0.02,0.00,VWS V14.00,2013-03-10 11:25:00,
2013-03-10 06:30:00,33.3,30.7,29.85,NW,323,5.0,14.0,90,0.00,,---,0.02,0.00,VWS V14.00,2013-03-10 11:30:00,
2013-03-10 06:35:00,33.3,30.7,29.86,NNW,337,9.0,17.0,90,0.00,,---,0.02,0.00,VWS V14.00,2013-03-10 11:35:00,
2013-03-10 06:40:00,33.3,30.7,29.86,NW,323,10.0,18.0,90,0.00,,---,0.02,0.00,VWS V14.00,2013-03-10 11:40:00,
2013-03-10 06:45:00,33.3,30.7,29.88,NNE,15,9.0,18.0,90,0.00,,---,0.02,0.00,VWS V14.00,2013-03-10 11:45:00,
2013-03-10 06:50:00,33.3,30.4,29.89,North,350,9.0,18.0,89,0.00,,---,0.02,0.00,VWS V14.00,2013-03-10 11:50:00,
2013-03-10 06:55:00,33.4,30.5,29.89,NNW,336,3.0,18.0,89,0.00,,---,0.02,0.00,VWS V14.00,2013-03-10 11:55:00,
2013-03-10 07:01:00,33.3,30.4,29.88,NW,323,4.0,11.0,89,0.00,,---,0.02,0.00,VWS V14.00,2013-03-10 12:01:00,
2013-03-10 07:06:00,33.3,30.4,29.88,North,355,7.0,14.0,89,0.00,,---,0.02,0.00,VWS V14.00,2013-03-10 12:06:00,
2013-03-10 07:11:00,33.2,30.3,29.86,North,9,11.0,14.0,89,0.00,,---,0.02,0.00,VWS V14.00,2013-03-10 12:11:00,
2013-03-10 07:16:00,33.2,30.6,29.86,North,5,9.0,15.0,90,0.00,,---,0.02,0.00,VWS V14.00,2013-03-10 12:16:00,
2013-03-10 07:21:00,33.2,30.3,29.86,NW,306,6.0,15.0,89,0.00,,---,0.02,0.00,VWS V14.00,2013-03-10 12:21:00,
2013-03-10 07:26:00,33.2,30.3,29.86,NNE,30,11.0,17.0,89,0.00,,---,0.02,0.00,VWS V14.00,2013-03-10 12:26:00,
2013-03-10 07:31:00,33.2,30.3,29.88,NNW,346,5.0,15.0,89,0.00,,---,0.02,0.00,VWS V14.00,2013-03-10 12:31:00,
2013-03-10 07:36:00,33.2,30.3,29.89,NNW,348,5.0,15.0,89,0.00,,---,0.02,0.00,VWS V14.00,2013-03-10 12:36:00,
2013-03-10 07:41:00,33.3,30.4,29.89,NNW,333,5.0,15.0,89,0.00,,---,0.02,0.00,VWS V14.00,2013-03-10 12:41:00,
2013-03-10 07:46:00,33.4,30.2,29.88,NNW,347,9.0,17.0,88,0.00,,---,0.02,0.00,VWS V14.00,2013-03-10 12:46:00,
2013-03-10 07:51:00,33.4,30.2,29.87,North,5,5.0,17.0,88,0.00,,---,0.02,0.00,VWS V14.00,2013-03-10 12:51:00,
2013-03-10 07:56:00,33.4,30.2,29.87,NNE,20,7.0,21.0,88,0.00,,---,0.03,5.00,VWS V14.00,2013-03-10 12:56:00,
2013-03-10 08:01:00,33.4,30.2,29.87,NNW,333,7.0,16.0,88,0.00,,---,0.03,7.00,VWS V14.00,2013-03-10 13:01:00,
2013-03-10 08:06:00,33.4,30.2,29.89,North,360,9.0,16.0,88,0.00,,---,0.03,7.00,VWS V14.00,2013-03-10 13:06:00,
2013-03-10 08:12:00,33.5,30.0,29.91,North,355,4.0,17.0,87,0.00,,---,0.03,9.00,VWS V14.00,2013-03-10 13:12:00,
2013-03-10 08:17:00,33.6,30.1,29.92,NNW,346,2.0,17.0,87,0.00,,---,0.03,11.00,VWS V14.00,2013-03-10 13:17:00,
2013-03-10 08:22:00,33.6,30.1,29.93,NE,36,7.0,17.0,87,0.00,,---,0.03,7.00,VWS V14.00,2013-03-10 13:22:00,
2013-03-10 08:27:00,33.6,30.1,29.94,North,5,3.0,17.0,87,0.00,,---,0.03,9.00,VWS V14.00,2013-03-10 13:27:00,
2013-03-10 08:32:00,33.7,30.0,29.94,NNW,342,9.0,15.0,86,0.00,,---,0.03,14.00,VWS V14.00,2013-03-10 13:32:00,
2013-03-10 08:37:00,33.8,30.1,29.95,NNW,329,9.0,15.0,86,0.00,,---,0.03,14.00,VWS V14.00,2013-03-10 13:37:00,
2013-03-10 08:42:00,33.8,30.1,29.95,NNW,341,4.0,15.0,86,0.00,,---,0.03,14.00,VWS V14.00,2013-03-10 13:42:00,
2013-03-10 08:47:00,33.7,30.0,29.95,NNE,17,12.0,15.0,86,0.00,,---,0.03,11.00,VWS V14.00,2013-03-10 13:47:00,
2013-03-10 08:53:00,33.7,30.2,29.95,North,9,6.0,15.0,87,0.00,,---,0.03,14.00,VWS V14.00,2013-03-10 13:53:00,
2013-03-10 08:58:00,33.7,30.2,29.95,NNW,337,7.0,7.0,87,0.00,,---,0.03,14.00,VWS V14.00,2013-03-10 13:58:00,
2013-03-10 09:03:00,33.6,30.1,29.95,NNW,344,7.0,11.0,87,0.00,,---,0.03,18.00,VWS V14.00,2013-03-10 14:03:00,
2013-03-10 09:08:00,33.6,30.1,29.96,NW,323,4.0,21.0,87,0.00,,---,0.03,18.00,VWS V14.00,2013-03-10 14:08:00,
2013-03-10 09:13:00,33.7,30.2,29.97,NNW,336,6.0,21.0,87,0.00,,---,0.03,19.00,VWS V14.00,2013-03-10 14:13:00,
2013-03-10 09:18:00,33.7,30.2,29.96,NNE,18,8.0,21.0,87,0.00,,---,0.03,21.00,VWS V14.00,2013-03-10 14:18:00,
2013-03-10 09:23:00,33.6,30.1,29.96,NNW,342,14.0,21.0,87,0.00,,---,0.03,23.00,VWS V14.00,2013-03-10 14:23:00,
2013-03-10 09:28:00,33.6,30.1,29.96,NW,310,6.0,12.0,87,0.00,,---,0.03,30.00,VWS V14.00,2013-03-10 14:28:00,
2013-03-10 09:33:00,33.6,30.1,29.95,NNE,15,5.0,14.0,87,0.00,,---,0.03,44.00,VWS V14.00,2013-03-10 14:33:00,
2013-03-10 09:38:00,33.6,30.4,29.94,North,5,10.0,14.0,88,0.00,,---,0.03,51.00,VWS V14.00,2013-03-10 14:38:00,
2013-03-10 09:43:00,33.5,30.3,29.92,NNW,342,8.0,14.0,88,0.00,,---,0.03,56.00,VWS V14.00,2013-03-10 14:43:00,
2013-03-10 09:49:00,33.5,30.3,29.92,NNW,348,8.0,16.0,88,0.00,,---,0.03,53.00,VWS V14.00,2013-03-10 14:49:00,
2013-03-10 09:54:00,33.4,30.2,29.94,NNE,13,9.0,16.0,88,0.00,,---,0.03,60.00,VWS V14.00,2013-03-10 14:54:00,
2013-03-10 09:59:00,33.4,30.2,29.95,NNE,13,10.0,15.0,88,0.00,,---,0.03,72.00,VWS V14.00,2013-03-10 14:59:00,
2013-03-10 10:04:00,33.4,30.2,29.95,North,10,4.0,15.0,88,0.00,,---,0.03,69.00,VWS V14.00,2013-03-10 15:04:00,
2013-03-10 10:09:00,33.3,30.1,29.96,NNW,341,2.0,15.0,88,0.00,,---,0.03,65.00,VWS V14.00,2013-03-10 15:09:00,
2013-03-10 10:14:00,33.3,30.1,29.96,NNE,14,10.0,15.0,88,0.00,,---,0.03,62.00,VWS V14.00,2013-03-10 15:14:00,
2013-03-10 10:19:00,33.2,30.0,29.96,North,355,8.0,15.0,88,0.00,,---,0.03,70.00,VWS V14.00,2013-03-10 15:19:00,
2013-03-10 10:24:00,33.2,29.8,29.95,NW,315,4.0,15.0,87,0.00,,---,0.03,65.00,VWS V14.00,2013-03-10 15:24:00,
2013-03-10 10:29:00,33.1,29.7,29.95,North,5,5.0,13.0,87,0.00,,---,0.03,63.00,VWS V14.00,2013-03-10 15:29:00,
2013-03-10 10:34:00,33.0,29.6,29.95,NW,319,8.0,13.0,87,0.00,,---,0.03,63.00,VWS V14.00,2013-03-10 15:34:00,
2013-03-10 10:39:00,33.0,29.6,29.95,NW,313,11.0,14.0,87,0.00,,---,0.03,63.00,VWS V14.00,2013-03-10 15:39:00,
2013-03-10 10:44:00,33.0,29.6,29.95,NNE,13,7.0,14.0,87,0.00,,---,0.03,60.00,VWS V14.00,2013-03-10 15:44:00,
2013-03-10 10:49:00,33.0,29.6,29.96,NNE,19,7.0,14.0,87,0.00,,---,0.03,62.00,VWS V14.00,2013-03-10 15:49:00,
2013-03-10 10:54:00,33.1,29.4,29.97,NW,325,5.0,14.0,86,0.00,,---,0.03,63.00,VWS V14.00,2013-03-10 15:54:00,
2013-03-10 11:00:00,33.1,29.4,29.97,NNW,330,4.0,12.0,86,0.00,,---,0.03,67.00,VWS V14.00,2013-03-10 16:00:00,
2013-03-10 11:05:00,33.2,29.5,29.97,North,5,6.0,12.0,86,0.00,,---,0.03,70.00,VWS V14.00,2013-03-10 16:05:00,
2013-03-10 11:10:00,33.2,29.5,29.97,NNE,17,8.0,14.0,86,0.00,,---,0.03,72.00,VWS V14.00,2013-03-10 16:10:00,
2013-03-10 11:15:00,33.1,29.4,29.96,NW,306,6.0,14.0,86,0.00,,---,0.03,83.00,VWS V14.00,2013-03-10 16:15:00,
2013-03-10 11:20:00,32.8,29.1,29.97,NE,45,7.0,16.0,86,0.00,,---,0.03,102.00,VWS V14.00,2013-03-10 16:20:00,
2013-03-10 11:25:00,32.7,29.0,29.96,NNW,330,8.0,17.0,86,0.00,,---,0.03,113.00,VWS V14.00,2013-03-10 16:25:00,
2013-03-10 11:30:00,32.6,28.9,29.96,NW,323,7.0,11.0,86,0.00,,---,0.03,109.00,VWS V14.00,2013-03-10 16:30:00,
2013-03-10 11:35:00,32.6,28.9,29.95,North,355,8.0,14.0,86,0.00,,---,0.03,111.00,VWS V14.00,2013-03-10 16:35:00,
2013-03-10 11:40:00,32.5,28.8,29.96,NNW,334,9.0,16.0,86,0.00,,---,0.03,107.00,VWS V14.00,2013-03-10 16:40:00,
2013-03-10 11:45:00,32.4,28.7,29.94,North,355,13.0,17.0,86,0.00,,---,0.03,116.00,VWS V14.00,2013-03-10 16:45:00,
2013-03-10 11:50:00,32.3,28.9,29.95,NNE,17,6.0,17.0,87,0.00,,---,0.03,111.00,VWS V14.00,2013-03-10 16:50:00,
2013-03-10 11:55:00,32.3,28.6,29.94,North,5,10.0,20.0,86,0.00,,---,0.03,114.00,VWS V14.00,2013-03-10 16:55:00,
2013-03-10 12:00:00,32.3,28.9,29.93,North,349,4.0,14.0,87,0.00,,---,0.03,105.00,VWS V14.00,2013-03-10 17:00:00,
2013-03-10 12:05:00,32.2,28.5,29.95,NNW,333,5.0,21.0,86,0.00,,---,0.03,111.00,VWS V14.00,2013-03-10 17:05:00,
2013-03-10 12:11:00,32.2,28.5,29.96,NNW,328,6.0,21.0,86,0.00,,---,0.03,116.00,VWS V14.00,2013-03-10 17:11:00,
2013-03-10 12:15:00,32.3,28.9,29.97,NNW,340,11.0,21.0,87,0.00,,---,0.03,111.00,VWS V14.00,2013-03-10 17:15:00,
2013-03-10 12:20:00,32.3,28.6,29.96,North,360,15.0,21.0,86,0.00,,---,0.03,111.00,VWS V14.00,2013-03-10 17:20:00,
2013-03-10 12:26:00,32.3,28.6,29.97,North,355,9.0,21.0,86,0.00,,---,0.03,125.00,VWS V14.00,2013-03-10 17:26:00,
2013-03-10 12:31:00,32.4,28.7,29.97,North,355,10.0,14.0,86,0.00,,---,0.03,120.00,VWS V14.00,2013-03-10 17:31:00,
2013-03-10 12:36:00,32.4,28.7,29.97,NNW,331,9.0,17.0,86,0.00,,---,0.03,130.00,VWS V14.00,2013-03-10 17:36:00,
2013-03-10 12:41:00,32.5,28.8,29.96,NNW,339,4.0,17.0,86,0.00,,---,0.03,134.00,VWS V14.00,2013-03-10 17:41:00,
2013-03-10 12:46:00,32.5,28.5,29.96,NNW,348,11.0,17.0,85,0.00,,---,0.03,109.00,VWS V14.00,2013-03-10 17:46:00,
2013-03-10 12:51:00,32.5,28.5,29.96,NNW,333,9.0,17.0,85,0.00,,---,0.03,120.00,VWS V14.00,2013-03-10 17:51:00,
2013-03-10 12:56:00,32.6,28.6,29.96,NNW,327,7.0,17.0,85,0.00,,---,0.03,127.00,VWS V14.00,2013-03-10 17:56:00,
2013-03-10 13:01:00,32.6,28.6,29.96,NNW,329,6.0,14.0,85,0.00,,---,0.03,123.00,VWS V14.00,2013-03-10 18:01:00,
2013-03-10 13:06:00,32.6,28.3,29.95,NNW,348,13.0,16.0,84,0.00,,---,0.03,137.00,VWS V14.00,2013-03-10 18:06:00,
2013-03-10 13:11:00,32.6,28.6,29.95,North,360,14.0,16.0,85,0.00,,---,0.03,130.00,VWS V14.00,2013-03-10 18:11:00,
2013-03-10 13:16:00,32.7,28.7,29.94,North,355,7.0,16.0,85,0.00,,---,0.03,134.00,VWS V14.00,2013-03-10 18:16:00,
2013-03-10 13:21:00,32.8,28.8,29.94,North,11,12.0,16.0,85,0.00,,---,0.03,142.00,VWS V14.00,2013-03-10 18:21:00,
2013-03-10 13:26:00,32.8,28.5,29.93,NNW,334,7.0,17.0,84,0.00,,---,0.03,114.00,VWS V14.00,2013-03-10 18:26:00,
2013-03-10 13:31:00,32.7,28.4,29.94,NW,323,4.0,18.0,84,0.00,,---,0.03,111.00,VWS V14.00,2013-03-10 18:31:00,
2013-03-10 13:36:00,32.7,28.4,29.93,North,11,9.0,18.0,84,0.00,,---,0.03,114.00,VWS V14.00,2013-03-10 18:36:00,
2013-03-10 13:42:00,32.6,28.3,29.93,NNW,333,10.0,18.0,84,0.00,,---,0.03,100.00,VWS V14.00,2013-03-10 18:42:00,
2013-03-10 13:47:00,32.6,28.3,29.95,NE,45,14.0,19.0,84,0.00,,---,0.03,107.00,VWS V14.00,2013-03-10 18:47:00,
2013-03-10 13:52:00,32.7,28.4,29.94,NW,309,9.0,19.0,84,0.00,,---,0.03,123.00,VWS V14.00,2013-03-10 18:52:00,
2013-03-10 13:57:00,32.8,28.5,29.94,North,9,11.0,19.0,84,0.00,,---,0.03,125.00,VWS V14.00,2013-03-10 18:57:00,
2013-03-10 14:02:00,32.9,28.3,29.94,NNW,348,14.0,14.0,83,0.00,,---,0.03,139.00,VWS V14.00,2013-03-10 19:02:00,
2013-03-10 14:07:00,32.9,28.3,29.93,NW,318,9.0,15.0,83,0.00,,---,0.03,132.00,VWS V14.00,2013-03-10 19:07:00,
2013-03-10 14:12:00,33.0,28.7,29.94,NW,315,5.0,15.0,84,0.00,,---,0.03,128.00,VWS V14.00,2013-03-10 19:12:00,
2013-03-10 14:17:00,33.1,28.5,29.93,North,5,12.0,15.0,83,0.00,,---,0.03,139.00,VWS V14.00,2013-03-10 19:17:00,
2013-03-10 14:22:00,33.1,28.5,29.94,North,360,5.0,15.0,83,0.00,,---,0.03,123.00,VWS V14.00,2013-03-10 19:22:00,
2013-03-10 14:27:00,33.0,28.1,29.94,NW,322,12.0,17.0,82,0.00,,---,0.03,135.00,VWS V14.00,2013-03-10 19:27:00,
2013-03-10 14:32:00,32.9,28.3,29.94,NW,307,6.0,15.0,83,0.00,,---,0.03,118.00,VWS V14.00,2013-03-10 19:32:00,
2013-03-10 14:37:00,32.7,27.8,29.93,NNW,335,7.0,20.0,82,0.00,,---,0.03,134.00,VWS V14.00,2013-03-10 19:37:00,
2013-03-10 14:42:00,32.8,28.2,29.94,NNW,347,7.0,20.0,83,0.00,,---,0.03,137.00,VWS V14.00,2013-03-10 19:42:00,
2013-03-10 14:47:00,32.8,27.9,29.93,NNE,14,6.0,20.0,82,0.00,,---,0.03,155.00,VWS V14.00,2013-03-10 19:47:00,
2013-03-10 14:52:00,32.8,27.9,29.94,North,5,12.0,20.0,82,0.00,,---,0.03,153.00,VWS V14.00,2013-03-10 19:52:00,
2013-03-10 14:57:00,32.8,27.9,29.94,NNW,338,4.0,20.0,82,0.00,,---,0.03,148.00,VWS V14.00,2013-03-10 19:57:00,
2013-03-10 15:02:00,32.9,28.0,29.94,NNW,332,5.0,12.0,82,0.00,,---,0.03,144.00,VWS V14.00,2013-03-10 20:02:00,
2013-03-10 15:07:00,33.0,27.8,29.94,North,355,4.0,14.0,81,0.00,,---,0.03,137.00,VWS V14.00,2013-03-10 20:07:00,
2013-03-10 15:12:00,32.9,27.7,29.94,North,360,9.0,16.0,81,0.00,,---,0.03,141.00,VWS V14.00,2013-03-10 20:12:00,
2013-03-10 15:17:00,32.8,27.6,29.94,NNW,331,10.0,16.0,81,0.00,,---,0.03,137.00,VWS V14.00,2013-03-10 20:17:00,
2013-03-10 15:22:00,32.6,27.4,29.93,North,5,7.0,19.0,81,0.00,,---,0.03,132.00,VWS V14.00,2013-03-10 20:22:00,
2013-03-10 15:27:00,32.6,27.4,29.93,North,360,8.0,19.0,81,0.00,,---,0.03,130.00,VWS V14.00,2013-03-10 20:27:00,
2013-03-10 15:33:00,32.6,27.4,29.93,NNW,342,13.0,18.0,81,0.00,,---,0.03,125.00,VWS V14.00,2013-03-10 20:33:00,
2013-03-10 15:38:00,32.6,27.7,29.93,NW,315,17.0,18.0,82,0.00,,---,0.03,121.00,VWS V14.00,2013-03-10 20:38:00,
2013-03-10 15:43:00,32.5,27.3,29.92,North,11,12.0,19.0,81,0.00,,---,0.03,134.00,VWS V14.00,2013-03-10 20:43:00,
2013-03-10 15:48:00,32.5,27.3,29.92,NNE,13,6.0,19.0,81,0.00,,---,0.03,132.00,VWS V14.00,2013-03-10 20:48:00,
2013-03-10 15:53:00,32.5,27.3,29.92,North,5,18.0,19.0,81,0.00,,---,0.03,135.00,VWS V14.00,2013-03-10 20:53:00,
2013-03-10 15:58:00,32.3,27.1,29.92,NNW,346,12.0,16.0,81,0.00,,---,0.03,121.00,VWS V14.00,2013-03-10 20:58:00,
2013-03-10 16:03:00,32.3,27.1,29.92,NNW,343,6.0,20.0,81,0.00,,---,0.03,120.00,VWS V14.00,2013-03-10 21:03:00,
2013-03-10 16:08:00,32.3,27.1,29.92,NNW,347,10.0,23.0,81,0.00,,---,0.03,107.00,VWS V14.00,2013-03-10 21:08:00,
2013-03-10 16:13:00,32.2,27.0,29.91,NNW,341,15.0,23.0,81,0.00,,---,0.03,109.00,VWS V14.00,2013-03-10 21:13:00,
2013-03-10 16:18:00,32.2,27.0,29.92,NNE,17,10.0,23.0,81,0.00,,---,0.03,102.00,VWS V14.00,2013-03-10 21:18:00,
2013-03-10 16:23:00,32.1,26.9,29.92,North,5,12.0,23.0,81,0.00,,---,0.03,102.00,VWS V14.00,2013-03-10 21:23:00,
2013-03-10 16:28:00,31.9,26.7,29.91,NNW,340,17.0,20.0,81,0.00,,---,0.03,104.00,VWS V14.00,2013-03-10 21:28:00,
2013-03-10 16:33:00,31.8,26.6,29.90,NNE,17,14.0,27.0,81,0.00,,---,0.03,88.00,VWS V14.00,2013-03-10 21:33:00,
2013-03-10 16:38:00,31.7,26.8,29.90,North,349,15.0,27.0,82,0.00,,---,0.03,83.00,VWS V14.00,2013-03-10 21:38:00,
2013-03-10 16:44:00,31.7,26.5,29.90,NNE,13,20.0,27.0,81,0.00,,---,0.03,95.00,VWS V14.00,2013-03-10 21:44:00,
2013-03-10 16:49:00,31.7,26.8,29.90,NNE,19,11.0,27.0,82,0.00,,---,0.03,90.00,VWS V14.00,2013-03-10 21:49:00,
2013-03-10 16:54:00,31.7,26.5,29.91,North,5,14.0,27.0,81,0.00,,---,0.03,65.00,VWS V14.00,2013-03-10 21:54:00,
2013-03-10 16:59:00,31.6,26.5,29.92,NNE,17,13.0,23.0,81,0.00,,---,0.03,56.00,VWS V14.00,2013-03-10 21:59:00,
2013-03-10 17:04:00,31.6,26.5,29.92,North,5,10.0,23.0,81,0.00,,---,0.03,51.00,VWS V14.00,2013-03-10 22:04:00,
2013-03-10 17:09:00,31.5,26.4,29.91,NNW,340,11.0,24.0,81,0.00,,---,0.03,56.00,VWS V14.00,2013-03-10 22:09:00,
2013-03-10 17:14:00,31.5,26.4,29.91,WNW,297,12.0,24.0,81,0.00,,---,0.03,56.00,VWS V14.00,2013-03-10 22:14:00,
2013-03-10 17:19:00,31.5,26.4,29.90,NNW,332,16.0,24.0,81,0.00,,---,0.03,54.00,VWS V14.00,2013-03-10 22:19:00,
2013-03-10 17:24:00,31.4,26.2,29.90,North,351,12.0,24.0,81,0.00,,---,0.03,47.00,VWS V14.00,2013-03-10 22:24:00,
2013-03-10 17:29:00,31.4,26.2,29.91,ENE,64,10.0,19.0,81,0.00,,---,0.03,47.00,VWS V14.00,2013-03-10 22:29:00,
2013-03-10 17:34:00,31.4,26.2,29.91,NW,323,10.0,23.0,81,0.00,,---,0.03,33.00,VWS V14.00,2013-03-10 22:34:00,
2013-03-10 17:39:00,31.3,26.2,29.91,NNE,20,6.0,26.0,81,0.00,,---,0.03,39.00,VWS V14.00,2013-03-10 22:39:00,
2013-03-10 17:45:00,31.3,26.2,29.91,NNE,15,20.0,26.0,81,0.00,,---,0.03,33.00,VWS V14.00,2013-03-10 22:45:00,
2013-03-10 17:50:00,31.2,26.4,29.90,North,360,12.0,26.0,82,0.00,,---,0.03,30.00,VWS V14.00,2013-03-10 22:50:00,
2013-03-10 17:55:00,31.2,26.4,29.90,North,355,5.0,26.0,82,0.00,,---,0.03,26.00,VWS V14.00,2013-03-10 22:55:00,
2013-03-10 18:00:00,31.1,26.3,29.90,North,355,18.0,20.0,82,0.00,,---,0.03,25.00,VWS V14.00,2013-03-10 23:00:00,
2013-03-10 18:05:00,31.1,26.3,29.90,NNW,347,11.0,20.0,82,0.00,,---,0.03,23.00,VWS V14.00,2013-03-10 23:05:00,
2013-03-10 18:10:00,31.1,26.3,29.90,North,5,15.0,20.0,82,0.00,,---,0.03,19.00,VWS V14.00,2013-03-10 23:10:00,
2013-03-10 18:15:00,31.1,26.3,29.91,North,5,13.0,20.0,82,0.00,,---,0.03,19.00,VWS V14.00,2013-03-10 23:15:00,
2013-03-10 18:20:00,31.1,26.3,29.91,North,351,6.0,20.0,82,0.00,,---,0.03,16.00,VWS V14.00,2013-03-10 23:20:00,
2013-03-10 18:25:00,31.0,26.2,29.91,North,355,17.0,20.0,82,0.00,,---,0.03,14.00,VWS V14.00,2013-03-10 23:25:00,
2013-03-10 18:30:00,31.0,26.2,29.91,NNW,348,12.0,20.0,82,0.00,,---,0.03,12.00,VWS V14.00,2013-03-10 23:30:00,
2013-03-10 18:35:00,31.0,25.9,29.91,North,350,13.0,20.0,81,0.00,,---,0.03,11.00,VWS V14.00,2013-03-10 23:35:00,
2013-03-10 18:40:00,31.0,26.2,29.91,NNW,344,9.0,20.0,82,0.00,,---,0.03,9.00,VWS V14.00,2013-03-10 23:40:00,
2013-03-10 18:46:00,30.9,26.1,29.91,NNW,346,9.0,21.0,82,0.00,,---,0.03,7.00,VWS V14.00,2013-03-10 23:46:00,
2013-03-10 18:51:00,30.9,26.1,29.91,NW,310,11.0,23.0,82,0.00,,---,0.03,7.00,VWS V14.00,2013-03-10 23:51:00,
2013-03-10 18:56:00,30.9,26.1,29.91,North,5,7.0,23.0,82,0.00,,---,0.03,5.00,VWS V14.00,2013-03-10 23:56:00,
2013-03-10 19:01:00,30.8,26.0,29.91,NNW,332,6.0,14.0,82,0.00,,---,0.03,0.00,VWS V14.00,2013-03-11 00:01:00,
2013-03-10 19:06:00,30.7,25.9,29.91,NNW,337,6.0,17.0,82,0.00,,---,0.03,0.00,VWS V14.00,2013-03-11 00:06:00,
2013-03-10 19:11:00,30.7,25.9,29.91,North,350,10.0,17.0,82,0.00,,---,0.03,0.00,VWS V14.00,2013-03-11 00:11:00,
2013-03-10 19:16:00,30.6,25.5,29.91,North,10,13.0,19.0,81,0.00,,---,0.03,0.00,VWS V14.00,2013-03-11 00:16:00,
2013-03-10 19:21:00,30.6,25.8,29.91,NNW,348,11.0,19.0,82,0.00,,---,0.03,0.00,VWS V14.00,2013-03-11 00:21:00,
2013-03-10 19:26:00,30.6,25.8,29.92,NW,326,11.0,19.0,82,0.00,,---,0.03,0.00,VWS V14.00,2013-03-11 00:26:00,
2013-03-10 19:32:00,30.6,25.8,29.92,NNW,343,10.0,18.0,82,0.00,,---,0.03,0.00,VWS V14.00,2013-03-11 00:32:00,
2013-03-10 19:37:00,30.5,25.7,29.92,North,360,8.0,18.0,82,0.00,,---,0.03,0.00,VWS V14.00,2013-03-11 00:37:00,
2013-03-10 19:42:00,30.5,25.7,29.92,North,351,16.0,19.0,82,0.00,,---,0.03,0.00,VWS V14.00,2013-03-11 00:42:00,
2013-03-10 19:47:00,30.5,25.7,29.92,North,5,12.0,19.0,82,0.00,,---,0.03,0.00,VWS V14.00,2013-03-11 00:47:00,
2013-03-10 19:52:00,30.4,25.6,29.92,NW,320,11.0,19.0,82,0.00,,---,0.03,0.00,VWS V14.00,2013-03-11 00:52:00,
2013-03-10 19:57:00,30.4,25.6,29.92,NNW,332,10.0,19.0,82,0.00,,---,0.03,0.00,VWS V14.00,2013-03-11 00:57:00,
2013-03-10 20:02:00,30.4,25.6,29.92,NW,326,6.0,17.0,82,0.00,,---,0.03,0.00,VWS V14.00,2013-03-11 01:02:00,
2013-03-10 20:07:00,30.3,25.5,29.92,NW,323,13.0,17.0,82,0.00,,---,0.03,0.00,VWS V14.00,2013-03-11 01:07:00,
2013-03-10 20:12:00,30.3,25.2,29.92,North,5,7.0,17.0,81,0.00,,---,0.03,0.00,VWS V14.00,2013-03-11 01:12:00,
2013-03-10 20:17:00,30.3,25.2,29.92,North,5,11.0,18.0,81,0.00,,---,0.03,0.00,VWS V14.00,2013-03-11 01:17:00,
2013-03-10 20:23:00,30.3,25.2,29.93,North,5,11.0,18.0,81,0.00,,---,0.03,0.00,VWS V14.00,2013-03-11 01:23:00,
2013-03-10 20:28:00,30.3,25.2,29.93,NNW,332,5.0,10.0,81,0.00,,---,0.03,0.00,VWS V14.00,2013-03-11 01:28:00,
2013-03-10 20:33:00,30.2,25.1,29.93,NNW,348,2.0,17.0,81,0.00,,---,0.03,0.00,VWS V14.00,2013-03-11 01:33:00,
2013-03-10 20:38:00,30.2,25.1,29.93,North,5,12.0,17.0,81,0.00,,---,0.03,0.00,VWS V14.00,2013-03-11 01:38:00,
2013-03-10 20:43:00,30.1,25.0,29.93,WNW,302,6.0,17.0,81,0.00,,---,0.03,0.00,VWS V14.00,2013-03-11 01:43:00,
2013-03-10 20:48:00,30.1,25.0,29.93,NNE,14,14.0,18.0,81,0.00,,---,0.03,0.00,VWS V14.00,2013-03-11 01:48:00,
2013-03-10 20:53:00,30.1,25.0,29.93,NNE,13,10.0,18.0,81,0.00,,---,0.03,0.00,VWS V14.00,2013-03-11 01:53:00,
2013-03-10 20:58:00,30.1,24.7,29.93,North,9,10.0,11.0,80,0.00,,---,0.03,0.00,VWS V14.00,2013-03-11 01:58:00,
2013-03-10 21:03:00,30.0,24.9,29.93,NW,322,6.0,14.0,81,0.00,,---,0.03,0.00,VWS V14.00,2013-03-11 02:03:00,
2013-03-10 21:08:00,30.0,24.9,29.94,North,5,5.0,14.0,81,0.00,,---,0.03,0.00,VWS V14.00,2013-03-11 02:08:00,
2013-03-10 21:13:00,29.9,24.8,29.94,NNE,20,7.0,14.0,81,0.00,,---,0.03,0.00,VWS V14.00,2013-03-11 02:13:00,
2013-03-10 21:18:00,29.9,24.8,29.94,NW,314,6.0,14.0,81,0.00,,---,0.03,0.00,VWS V14.00,2013-03-11 02:18:00,
2013-03-10 21:23:00,29.9,24.8,29.94,NNW,328,6.0,14.0,81,0.00,,---,0.03,0.00,VWS V14.00,2013-03-11 02:23:00,
2013-03-10 21:28:00,29.8,24.7,29.94,North,355,12.0,12.0,81,0.00,,---,0.03,0.00,VWS V14.00,2013-03-11 02:28:00,
2013-03-10 21:33:00,29.8,24.7,29.94,NNW,338,5.0,12.0,81,0.00,,---,0.03,0.00,VWS V14.00,2013-03-11 02:33:00,
2013-03-10 21:39:00,29.8,24.7,29.94,NW,324,4.0,13.0,81,0.00,,---,0.03,0.00,VWS V14.00,2013-03-11 02:39:00,
2013-03-10 21:44:00,29.7,24.6,29.94,North,351,11.0,14.0,81,0.00,,---,0.03,0.00,VWS V14.00,2013-03-11 02:44:00,
2013-03-10 21:49:00,29.7,24.6,29.93,NNW,338,9.0,14.0,81,0.00,,---,0.03,0.00,VWS V14.00,2013-03-11 02:49:00,
2013-03-10 21:54:00,29.6,24.5,29.93,North,350,13.0,14.0,81,0.00,,---,0.03,0.00,VWS V14.00,2013-03-11 02:54:00,
2013-03-10 21:59:00,29.6,24.5,29.93,North,351,7.0,13.0,81,0.00,,---,0.03,0.00,VWS V14.00,2013-03-11 02:59:00,
2013-03-10 22:04:00,29.5,24.7,29.93,NNW,336,4.0,15.0,82,0.00,,---,0.03,0.00,VWS V14.00,2013-03-11 03:04:00,
2013-03-10 22:09:00,29.4,24.6,29.93,NNE,17,6.0,15.0,82,0.00,,---,0.03,0.00,VWS V14.00,2013-03-11 03:09:00,
2013-03-10 22:14:00,29.4,24.6,29.92,NNW,336,10.0,15.0,82,0.00,,---,0.03,0.00,VWS V14.00,2013-03-11 03:14:00,
2013-03-10 22:19:00,29.4,24.6,29.92,North,355,8.0,16.0,82,0.00,,---,0.03,0.00,VWS V14.00,2013-03-11 03:19:00,
2013-03-10 22:24:00,29.3,24.5,29.92,North,355,13.0,16.0,82,0.00,,---,0.03,0.00,VWS V14.00,2013-03-11 03:24:00,
2013-03-10 22:29:00,29.3,24.5,29.92,North,351,5.0,17.0,82,0.00,,---,0.03,0.00,VWS V14.00,2013-03-11 03:29:00,
2013-03-10 22:34:00,29.3,24.5,29.92,NNE,22,10.0,17.0,82,0.00,,---,0.03,0.00,VWS V14.00,2013-03-11 03:34:00,
2013-03-10 22:39:00,29.2,24.4,29.91,NNW,336,4.0,17.0,82,0.00,,---,0.03,0.00,VWS V14.00,2013-03-11 03:39:00,
2013-03-10 22:45:00,29.2,24.4,29.91,NW,318,9.0,17.0,82,0.00,,---,0.03,0.00,VWS V14.00,2013-03-11 03:45:00,
2013-03-10 22:49:00,29.2,24.4,29.91,NW,325,9.0,17.0,82,0.00,,---,0.03,0.00,VWS V14.00,2013-03-11 03:49:00,
2013-03-10 22:54:00,29.1,24.6,29.90,NNW,337,6.0,17.0,83,0.00,,---,0.03,0.00,VWS V14.00,2013-03-11 03:54:00,
2013-03-10 22:59:00,29.1,24.3,29.90,NNW,330,5.0,14.0,82,0.00,,---,0.03,0.00,VWS V14.00,2013-03-11 03:59:00,
2013-03-10 23:00:00,29.1,24.3,29.90,NW,321,6.0,14.0,82,0.00,,---,0.03,0.00,VWS V14.00,2013-03-11 04:00:00,
2013-03-10 23:05:00,29.1,24.3,29.90,NW,306,9.0,15.0,82,0.00,,---,0.03,0.00,VWS V14.00,2013-03-11 04:05:00,
2013-03-10 23:10:00,29.0,24.5,29.90,NNW,333,7.0,15.0,83,0.00,,---,0.03,0.00,VWS V14.00,2013-03-11 04:10:00,
2013-03-10 23:15:00,29.0,24.2,29.90,NW,317,9.0,16.0,82,0.00,,---,0.03,0.00,VWS V14.00,2013-03-11 04:15:00,
2013-03-10 23:20:00,29.0,24.5,29.90,NNW,332,8.0,16.0,83,0.00,,---,0.03,0.00,VWS V14.00,2013-03-11 04:20:00,
2013-03-10 23:25:00,28.9,24.4,29.90,NNW,346,12.0,16.0,83,0.00,,---,0.03,0.00,VWS V14.00,2013-03-11 04:25:00,
2013-03-10 23:30:00,28.9,24.4,29.90,NNW,348,3.0,13.0,83,0.00,,---,0.03,0.00,VWS V14.00,2013-03-11 04:30:00,
2013-03-10 23:35:00,28.9,24.4,29.89,NNW,337,3.0,14.0,83,0.00,,---,0.03,0.00,VWS V14.00,2013-03-11 04:35:00,
2013-03-10 23:41:00,28.9,24.4,29.89,NW,319,3.0,14.0,83,0.00,,---,0.03,0.00,VWS V14.00,2013-03-11 04:41:00,
2013-03-10 23:46:00,28.8,24.3,29.89,North,360,9.0,16.0,83,0.00,,---,0.03,0.00,VWS V14.00,2013-03-11 04:46:00,
2013-03-10 23:51:00,28.8,24.3,29.89,NW,316,6.0,16.0,83,0.00,,---,0.03,0.00,VWS V14.00,2013-03-11 04:51:00,
2013-03-10 23:56:00,28.8,24.3,29.89,NNW,345,7.0,16.0,83,0.00,,---,0.03,0.00,VWS V14.00,2013-03-11 04:56:00,